Saginaw, MI

6:16 AM EDT on May 28, 2018 (GMT -0400)
MBS International

Weather History for KMBS - January, 2012

Change the Weather History Date:

Sunday, January 22, 2012

  Actual Average Record
Temperature  
Mean Temperature 22 °F 22 °F  
Max Temperature 36 °F 29 °F 47 °F (2018)
Min Temperature 10 °F 15 °F -6 °F (2000)
Degree Days  
Heating Degree Days 42    
Month to date heating degree days  
Since 1 July heating degree days  
Cooling Degree Days 0    
Month to date cooling degree days  
Year to date cooling degree days  
Moisture  
Dew Point 19 °F    
Average Humidity 80    
Maximum Humidity 93    
Minimum Humidity 69    
Precipitation  
Precipitation 0.00 in 0.05 in 0.70 in (2018)
Month to date precipitation 1.29  
Year to date precipitation 1.29  
Snow  
Snow 0.00 in - - ()
Month to date snowfall  
Since 1 July snowfall  
Snow Depth -    
Sea Level Pressure  
Sea Level Pressure 30.05 in    
Wind  
Wind Speed 7 mph (SSE)    
Max Wind Speed 16 mph    
Max Gust Speed 24 mph    
Visibility 9 miles    
Events      
T = Trace of Precipitation, MM = Missing Value Source: NWS Daily Summary

Daily Weather History Graph

Daily Weather History Graph

Search for Another Location

Airport or City:

Astronomy

Jan. 22, 2012 Rise Set
Actual Time 8:02 AM EST 5:33 PM EST
Civil Twilight 7:31 AM EST 6:05 PM EST
Nautical Twilight 6:56 AM EST 6:40 PM EST
Astronomical Twilight 6:22 AM EST 7:14 PM EST
Moon 7:18 AM EST (1/22) 5:15 PM EST (1/22)
Length of Visible Light 10h 34m
Length of Day
9h 31m
Waning Crescent, 0% of the Moon is Illuminated
Jan 22
Waning Crescent
Jan 23
New
Jan 30
First Quarter
Feb 7
Full
Feb 14
Last Quarter

Hourly Weather History & Observations

Time (EST) Temp. Windchill Dew Point Humidity Pressure Visibility Wind Dir Wind Speed Gust Speed Precip Events Conditions
12:53 AM 10.9 °F 2.9 °F 5.0 °F 77% 30.29 in 10.0 mi ESE 4.6 mph - N/A   Clear
1:53 AM 10.9 °F 0.2 °F 5.0 °F 77% 30.26 in 10.0 mi SE 6.9 mph - N/A   Clear
2:53 AM 12.0 °F 4.1 °F 5.0 °F 73% 30.25 in 10.0 mi East 4.6 mph - N/A   Clear
3:53 AM 12.0 °F - 6.1 °F 77% 30.25 in 10.0 mi Calm Calm - N/A   Clear
4:37 AM 10.4 °F - 5.0 °F 79% 30.20 in 10.0 mi Calm Calm - N/A   Mostly Cloudy
4:53 AM 10.9 °F - 6.1 °F 81% 30.23 in 10.0 mi Calm Calm - N/A   Overcast
5:53 AM 15.1 °F 5.2 °F 9.0 °F 77% 30.22 in 10.0 mi ENE 6.9 mph - N/A   Overcast
6:53 AM 17.1 °F 8.7 °F 10.9 °F 77% 30.21 in 10.0 mi ESE 5.8 mph - N/A   Overcast
7:53 AM 19.0 °F 10.0 °F 12.9 °F 77% 30.20 in 10.0 mi ESE 6.9 mph - N/A   Overcast
8:32 AM 19.4 °F 9.5 °F 14.0 °F 80% 30.14 in 10.0 mi ESE 8.1 mph - N/A   Scattered Clouds
8:53 AM 19.0 °F 10.0 °F 14.0 °F 81% 30.19 in 10.0 mi ESE 6.9 mph - N/A   Clear
9:53 AM 21.0 °F 10.6 °F 16.0 °F 81% 30.15 in 10.0 mi ESE 9.2 mph - N/A   Clear
10:53 AM 26.6 °F 15.7 °F 19.4 °F 74% 30.09 in 10.0 mi SE 12.7 mph - N/A   Clear
11:53 AM 27.0 °F 16.7 °F 19.9 °F 75% 30.09 in 10.0 mi SE 11.5 mph - N/A   Clear
12:53 PM 28.9 °F 19.8 °F 21.0 °F 72% 30.06 in 10.0 mi South 10.4 mph - N/A   Clear
1:53 PM 30.0 °F 22.4 °F 21.0 °F 69% 30.02 in 10.0 mi SSE 8.1 mph - N/A   Clear
2:53 PM 30.0 °F 21.1 °F 21.9 °F 72% 30.01 in 10.0 mi SW 10.4 mph - N/A   Clear
3:53 PM 30.0 °F 23.2 °F 21.9 °F 72% 29.99 in 10.0 mi SSW 6.9 mph - N/A   Mostly Cloudy
4:53 PM 30.0 °F 19.5 °F 24.1 °F 79% 29.99 in 8.0 mi South 13.8 mph 20.7 mph N/A   Overcast
5:04 PM 30.2 °F 20.2 °F 24.8 °F 80% 29.95 in 8.0 mi South 12.7 mph 23.0 mph N/A   Overcast
5:53 PM 28.9 °F 17.3 °F 24.1 °F 82% 29.98 in 8.0 mi South 16.1 mph - N/A   Overcast
6:24 PM 28.4 °F 17.5 °F 24.8 °F 86% 29.91 in 8.0 mi SSE 13.8 mph 24.2 mph N/A   Overcast
6:53 PM 28.4 °F 18.0 °F 24.8 °F 86% 29.90 in 8.0 mi SSE 12.7 mph - N/A   Overcast
7:53 PM 30.0 °F 20.0 °F 27.0 °F 88% 29.91 in 7.0 mi SSE 12.7 mph - N/A   Overcast
8:53 PM 32.0 °F 24.8 °F 28.0 °F 85% 29.90 in 6.0 mi South 8.1 mph - 0.00 in   Overcast
9:53 PM 33.1 °F 23.4 °F 30.0 °F 89% 29.85 in 7.0 mi SSE 13.8 mph - 0.00 in   Overcast
10:53 PM 34.0 °F 26.6 °F 30.9 °F 89% 29.82 in 5.0 mi South 9.2 mph - N/A   Overcast
11:40 PM 35.6 °F 29.2 °F 33.8 °F 93% 29.75 in 5.0 mi SSE 8.1 mph - N/A   Overcast
11:53 PM 36.0 °F 29.6 °F 33.1 °F 89% 29.77 in 4.0 mi South 8.1 mph - N/A   Overcast